Parkersburg, WV

10:35 PM EDT on October 14, 2019 (GMT -0400)
Wood County Wilson

Weather History for KPKB - August, 2019

Change the Weather History Date:

Wednesday, August 28, 2019

  Actual Average Record
Temperature  
Mean Temperature 70 °F 72 °F  
Max Temperature 81 °F 83 °F 98 °F (1948)
Min Temperature 58 °F 61 °F 45 °F (1986)
Degree Days  
Heating Degree Days 0 0  
Month to date heating degree days 0 0  
Since 1 June heating degree days 16 20  
Since 1 July heating degree days 0 1  
Cooling Degree Days 4 7  
Month to date cooling degree days 235 240  
Year to date cooling degree days 932 807  
Since 1 June cooling degree days 787 723  
Growing Degree Days 20 (Base 50)    
Moisture  
Dew Point 64 °F    
Average Humidity 82    
Maximum Humidity 96    
Minimum Humidity 36    
Precipitation  
Precipitation 0.20 in 0.11 in 3.18 in (1983)
Month to date precipitation 3.79 3.27  
Year to date precipitation 33.23 28.45  
Sea Level Pressure  
Sea Level Pressure 29.96 in    
Wind  
Wind Speed 4 mph ()    
Max Wind Speed 16 mph    
Max Gust Speed 24 mph    
Visibility 7.3 miles    
Events Fog , Rain , Thunderstorm    
T = Trace of Precipitation, MM = Missing Value Source: Averaged Metar Reports

Daily Weather History Graph

Daily Weather History Graph

Search for Another Location

Airport or City:

Astronomy

Aug. 28, 2019 Rise Set
Actual Time 6:50 AM EDT 8:03 PM EDT
Civil Twilight 6:22 AM EDT 8:30 PM EDT
Nautical Twilight 5:49 AM EDT 9:03 PM EDT
Astronomical Twilight 5:14 AM EDT 9:38 PM EDT
Moon 4:21 AM EDT (8/28) 7:12 PM EDT (8/28)
Length of Visible Light 14h 08m
Length of Day
13h 12m
Waning Crescent, 5% of the Moon is Illuminated
Aug 28
Waning Crescent
Aug 30
New
Sep 5
First Quarter
Sep 14
Full
Sep 21
Last Quarter

Hourly Weather History & Observations

Time (EDT) Temp. Heat Index Dew Point Humidity Pressure Visibility Wind Dir Wind Speed Gust Speed Precip Events Conditions
12:53 AM 72.0 °F - 69.1 °F 91% 29.91 in 10.0 mi SSW 4.6 mph - 0.00 in Rain Light Rain
1:09 AM 71.1 °F - 69.1 °F 93% 29.94 in 6.0 mi West 6.9 mph - 0.01 in Rain Light Rain
1:17 AM 71.1 °F - 69.1 °F 93% 29.95 in 4.0 mi West 4.6 mph - 0.04 in Rain , Thunderstorm Light Rain
1:22 AM 71.1 °F - 69.1 °F 93% 29.95 in 1.8 mi Variable 5.8 mph - 0.08 in Rain , Thunderstorm Heavy Rain
1:32 AM 71.1 °F - 70.0 °F 96% 29.94 in 1.8 mi Variable 3.5 mph - 0.13 in Rain Rain
1:39 AM 71.1 °F - 70.0 °F 96% 29.94 in 3.0 mi West 3.5 mph - 0.14 in Rain Light Rain
1:41 AM 71.1 °F - 70.0 °F 96% 29.94 in 2.0 mi West 4.6 mph - 0.17 in Rain Rain
1:45 AM 71.1 °F - 70.0 °F 96% 29.94 in 1.8 mi WSW 4.6 mph - 0.18 in Rain Heavy Rain
1:51 AM 71.6 °F - 69.8 °F 94% 29.94 in 3.0 mi SSW 4.6 mph - 0.19 in Rain Light Rain
1:53 AM 71.1 °F - 70.0 °F 96% 29.92 in 6.0 mi SW 3.5 mph - 0.19 in Rain Light Rain
2:53 AM 71.1 °F - 69.1 °F 93% 29.90 in 10.0 mi West 3.5 mph - 0.01 in Rain Light Rain
3:28 AM 71.1 °F - 69.1 °F 93% 29.92 in 10.0 mi Calm Calm - 0.00 in Rain Light Rain
3:42 AM 71.1 °F - 69.1 °F 93% 29.92 in 10.0 mi Calm Calm - 0.00 in   Overcast
3:53 AM 71.1 °F - 69.1 °F 93% 29.90 in 10.0 mi Calm Calm - 0.00 in   Overcast
4:53 AM 71.1 °F - 69.1 °F 93% 29.91 in 6.0 mi West 4.6 mph - 0.00 in Rain Light Rain
5:13 AM 71.1 °F - 69.1 °F 93% 29.93 in 10.0 mi WNW 6.9 mph - 0.00 in   Overcast
5:53 AM 69.1 °F - 68.0 °F 96% 29.92 in 8.0 mi WNW 3.5 mph - 0.00 in   Partly Cloudy
6:13 AM 69.1 °F - 66.9 °F 93% 29.94 in 7.0 mi Variable 3.5 mph - N/A   Scattered Clouds
6:53 AM 68.0 °F - 66.0 °F 93% 29.94 in 4.0 mi NW 3.5 mph - N/A   Scattered Clouds
7:06 AM 68.0 °F - 66.0 °F 93% 29.96 in 4.0 mi Calm Calm - N/A   Mostly Cloudy
7:09 AM 68.0 °F - 66.0 °F 93% 29.96 in 3.0 mi Calm Calm - N/A Fog Patches of Fog
7:11 AM 68.0 °F - 66.0 °F 93% 29.96 in 3.0 mi Calm Calm - N/A Fog Patches of Fog
8:12 AM 69.1 °F - 66.9 °F 93% 29.97 in 3.0 mi North - - N/A   Mostly Cloudy
8:53 AM 69.1 °F - 66.0 °F 90% 29.96 in 6.0 mi WNW 6.9 mph - N/A   Mostly Cloudy
9:53 AM 70.0 °F - 66.0 °F 87% 29.97 in 10.0 mi Variable 3.5 mph - N/A   Partly Cloudy
10:53 AM 73.0 °F - 66.0 °F 79% 29.98 in 10.0 mi West 5.8 mph - N/A   Partly Cloudy
11:53 AM 73.9 °F - 64.0 °F 71% 29.98 in 10.0 mi SSW 6.9 mph - N/A   Mostly Cloudy
12:07 PM 75.0 °F - 64.0 °F 69% 30.00 in 10.0 mi WNW 9.2 mph - N/A   Mostly Cloudy
12:53 PM 78.1 °F - 61.0 °F 56% 29.98 in 10.0 mi WNW 9.2 mph 17.3 mph N/A   Mostly Cloudy
1:53 PM 79.0 °F - 57.0 °F 47% 29.97 in 10.0 mi WNW 10.4 mph 20.7 mph N/A   Scattered Clouds
2:53 PM 81.0 °F 80.8 °F 55.9 °F 42% 29.97 in 10.0 mi West 9.2 mph 19.6 mph N/A   Scattered Clouds
3:53 PM 80.1 °F - 52.0 °F 38% 29.97 in 10.0 mi West 9.2 mph 19.6 mph N/A   Partly Cloudy
4:53 PM 78.1 °F - 51.1 °F 39% 29.98 in 10.0 mi West 11.5 mph 18.4 mph N/A   Partly Cloudy
5:53 PM 79.0 °F - 54.0 °F 42% 29.98 in 10.0 mi WNW 6.9 mph - N/A   Partly Cloudy
6:53 PM 75.9 °F - 53.1 °F 45% 29.99 in 10.0 mi West 6.9 mph - N/A   Clear
7:53 PM 71.1 °F - 55.9 °F 59% 29.99 in 10.0 mi West 3.5 mph - N/A   Clear
8:53 PM 64.9 °F - 59.0 °F 81% 30.01 in 10.0 mi Calm Calm - N/A   Clear
9:53 PM 64.0 °F - 57.0 °F 78% 30.03 in 10.0 mi Calm Calm - N/A   Clear
10:53 PM 60.1 °F - 57.9 °F 93% 30.04 in 10.0 mi Calm Calm - N/A   Clear
11:53 PM 59.0 °F - 57.0 °F 93% 30.04 in 10.0 mi Calm Calm - N/A   Clear